EW8275 Weather Reports


time (UTC)temp
F
wind
direction
speed
knots
gust
knots
rain 1hr
in
rain 24hr
in
rain mn
in
humidity
%
barometer
mb
20260506051034 50 41 1.7 4.3 0.00 0.00 0.00 86 1007.8
20260506050545 50 53 1.7 6.1 0.00 0.00 0.00 86 1007.8
20260506045048 50 40 1.7 5.2 0.00 0.00 0.00 87 1007.8
20260506044548 50 47 1.7 4.3 0.00 0.00 0.00 87 1007.8
20260506044044 50 333 1.7 5.2 0.00 0.00 0.00 87 1007.9
20260506043533 49 19 2.6 5.2 0.00 0.00 0.00 88 1007.8
20260506043039 49 5 2.6 5.2 0.00 0.00 0.00 88 1007.9
20260506042534 49 322 0.9 4.3 0.00 0.00 0.00 88 1007.8
20260506042049 49 5 0.9 4.3 0.00 0.00 0.00 88 1007.9
20260506041557 49 355 1.7 4.3 0.00 0.00 0.00 88 1007.9
20260506041029 49 33 1.7 5.2 0.00 0.00 0.00 87 1007.9
20260506040537 49 360 1.7 6.1 0.00 0.00 0.00 86 1007.9
20260506035544 50 41 3.5 6.1 0.00 0.00 0.00 85 1008.0
20260506035047 50 355 1.7 6.1 0.00 0.00 0.00 85 1008.0
20260506034557 50 16 1.7 6.1 0.00 0.00 0.00 85 1008.0
20260506034035 50 24 2.6 7.0 0.00 0.00 0.00 85 1008.0
20260506033603 50 5 1.7 7.0 0.00 0.00 0.00 85 1008.0
20260506033051 50 43 2.6 4.3 0.00 0.00 0.00 85 1008.1
20260506032536 50 59 1.7 5.2 0.00 0.00 0.00 84 1008.1
20260506032027 50 34 1.7 5.2 0.00 0.00 0.00 84 1008.1
20260506031552 50 18 2.6 6.1 0.00 0.00 0.00 84 1008.1
20260506031041 50 360 1.7 7.8 0.00 0.00 0.00 84 1008.1
20260506030546 50 26 1.7 4.3 0.00 0.00 0.00 84 1008.1
20260506030030 50 50 2.6 6.1 0.00 0.00 0.00 84 1008.2
20260506025552 50 57 3.5 6.1 0.00 0.00 0.00 84 1008.2
20260506025030 50 304 3.5 7.0 0.00 0.00 0.00 84 1008.2
20260506024600 50 5 2.6 7.0 0.00 0.00 0.00 84 1008.3
20260506024048 50 30 2.6 7.0 0.00 0.00 0.00 84 1008.3
20260506023536 50 5 2.6 6.1 0.00 0.00 0.00 84 1008.3
20260506023042 49 24 2.6 6.1 0.00 0.00 0.00 84 1008.2
20260506022532 49 32 1.7 7.0 0.00 0.00 0.00 84 1008.3
20260506022037 49 33 3.5 7.0 0.00 0.00 0.00 84 1008.3
20260506021535 49 37 2.6 6.1 0.00 0.00 0.00 84 1008.3
20260506021029 49 355 3.5 6.1 0.00 0.00 0.00 85 1008.3
20260506020548 49 25 1.7 7.8 0.00 0.00 0.00 85 1008.3
20260506020031 49 19 2.6 7.8 0.00 0.00 0.00 85 1008.4
20260506015532 49 314 2.6 6.1 0.00 0.00 0.00 85 1008.4
20260506015030 49 19 1.7 7.0 0.00 0.00 0.00 85 1008.4
20260506014555 48 22 2.6 7.0 0.00 0.00 0.00 85 1008.3
20260506014039 48 348 2.6 7.0 0.00 0.00 0.00 85 1008.3
20260506013549 48 36 2.6 6.1 0.00 0.00 0.00 86 1008.4
20260506013040 48 338 2.6 6.1 0.00 0.00 0.00 86 1008.4
20260506012529 48 5 1.7 6.1 0.00 0.00 0.00 86 1008.4
20260506012040 48 19 3.5 6.1 0.00 0.00 0.00 87 1008.4
20260506011534 48 325 1.7 4.3 0.00 0.00 0.00 86 1008.4
20260506011048 48 331 0.9 3.5 0.00 0.00 0.00 86 1008.5
20260506010540 48 9 0.9 3.5 0.00 0.00 0.00 86 1008.5
20260506010040 48 355 0.9 2.6 0.00 0.00 0.00 86 1008.5
20260506005542 48 5 0.9 2.6 0.00 0.00 0.00 85 1008.6
20260506005055 48 329 0.9 5.2 0.00 0.00 0.00 85 1008.7
20260506004549 49 360 1.7 5.2 0.00 0.00 0.00 85 1008.8
20260506004031 49 18 0.9 4.3 0.00 0.00 0.00 85 1008.8
20260506003556 49 5 1.7 4.3 0.00 0.00 0.00 84 1008.8
20260506003036 49 30 0.9 4.3 0.00 0.00 0.00 84 1008.9
20260506002603 49 11 1.7 3.5 0.00 0.00 0.00 84 1008.9
20260506002110 49 336 0.9 2.6 0.00 0.00 0.00 84 1009.0
20260506001626 49 336 0.9 2.6 0.00 0.00 0.00 84 1009.0
20260506001051 49 346 0.9 2.6 0.00 0.00 0.00 84 1009.0
20260506000547 49 335 0.9 5.2 0.00 0.00 0.00 83 1009.0
20260506000038 49 13 1.7 5.2 0.00 0.00 0.00 83 1009.0
20260505235603 49 22 1.7 6.1 0.00 0.00 0.00 83 1009.1
20260505235039 49 5 1.7 5.2 0.00 0.00 0.00 83 1009.1
20260505234537 49 19 2.6 5.2 0.00 0.00 0.00 83 1009.1
20260505234031 49 355 0.9 5.2 0.00 0.00 0.00 82 1009.1
20260505233532 49 41 1.7 5.2 0.00 0.00 0.00 82 1009.2
20260505233036 48 9 1.7 5.2 0.00 0.00 0.00 82 1009.2
20260505232604 48 60 2.6 5.2 0.00 0.00 0.00 82 1009.3
20260505232028 48 12 1.7 4.3 0.00 0.00 0.00 83 1009.3
20260505231541 48 5 2.6 5.2 0.00 0.00 0.00 83 1009.4
20260505231055 48 355 2.6 6.1 0.00 0.00 0.00 82 1009.5
20260505230556 48 47 1.7 6.1 0.00 0.00 0.00 82 1009.5
20260505230025 48 360 1.7 4.3 0.00 0.00 0.00 82 1009.5
20260505225537 48 360 1.7 5.2 0.00 0.00 0.00 82 1009.5
20260505225033 48 38 2.6 5.2 0.00 0.00 0.00 82 1009.5
20260505224540 48 30 1.7 5.2 0.00 0.00 0.00 82 1009.5
20260505224046 48 5 2.6 5.2 0.00 0.00 0.00 81 1009.5
20260505223543 48 28 1.7 5.2 0.00 0.00 0.00 81 1009.5
20260505223029 48 349 2.6 6.1 0.00 0.00 0.00 81 1009.5
20260505222535 48 24 2.6 7.0 0.00 0.00 0.00 81 1009.5
20260505222037 48 360 1.7 7.0 0.00 0.00 0.00 80 1009.6
20260505221553 49 44 2.6 7.0 0.00 0.00 0.00 80 1009.6
20260505221045 49 344 1.7 5.2 0.00 0.00 0.00 80 1009.6
20260505220532 49 355 1.7 5.2 0.00 0.00 0.00 80 1009.6
20260505220049 49 31 1.7 5.2 0.00 0.00 0.00 80 1009.7
20260505215537 49 321 1.7 5.2 0.00 0.00 0.00 79 1009.7
20260505215041 49 39 1.7 6.1 0.00 0.00 0.00 79 1009.7
20260505214542 49 323 2.6 6.1 0.00 0.00 0.00 79 1009.8
20260505214036 49 319 2.6 5.2 0.00 0.00 0.00 79 1009.8
20260505213550 49 355 1.7 5.2 0.00 0.00 0.00 79 1009.8
20260505213111 49 24 2.6 5.2 0.00 0.00 0.00 79 1009.8
20260505212535 49 19 1.7 6.1 0.00 0.00 0.00 79 1009.9
20260505212042 49 26 2.6 6.1 0.00 0.00 0.00 78 1009.9
20260505211531 49 360 2.6 6.1 0.00 0.00 0.00 78 1009.9
20260505211037 50 19 1.7 7.8 0.00 0.00 0.00 78 1009.8
20260505210530 50 264 3.5 7.8 0.00 0.00 0.00 79 1009.9
20260505210029 50 22 2.6 7.8 0.00 0.00 0.00 79 1009.9
20260505205602 50 5 2.6 7.8 0.00 0.00 0.00 79 1010.0
20260505205040 50 16 2.6 7.0 0.00 0.00 0.00 80 1010.1
20260505204551 50 23 2.6 6.1 0.00 0.00 0.00 80 1010.0
20260505204025 50 37 1.7 4.3 0.00 0.00 0.00 81 1010.1
20260505203559 50 5 1.7 7.8 0.00 0.00 0.00 81 1010.1
20260505203046 50 30 2.6 6.1 0.00 0.00 0.00 81 1010.1
20260505202548 50 11 1.7 3.5 0.00 0.00 0.00 80 1010.1
20260505202119 50 49 1.7 5.2 0.00 0.00 0.00 80 1010.0
20260505201542 50 51 1.7 5.2 0.00 0.00 0.00 80 1010.0
20260505201033 50 355 2.6 4.3 0.00 0.00 0.00 80 1010.1
20260505200549 50 24 2.6 6.1 0.00 0.00 0.00 79 1010.0
20260505200029 51 349 2.6 7.0 0.00 0.00 0.00 79 1010.0
20260505195530 51 29 2.6 7.0 0.00 0.00 0.00 79 1010.0
20260505195033 51 360 2.6 7.0 0.00 0.00 0.00 78 1009.9
20260505194603 51 58 3.5 7.0 0.00 0.00 0.00 78 1009.8
20260505194037 51 32 3.5 7.8 0.00 0.00 0.00 78 1009.8
20260505193614 52 360 3.5 7.8 0.00 0.00 0.00 77 1009.7
20260505193039 52 17 3.5 7.0 0.00 0.00 0.00 77 1009.7
20260505192543 52 37 3.5 7.8 0.00 0.00 0.00 77 1009.6
20260505192030 52 5 3.5 9.6 0.00 0.00 0.00 76 1009.6
20260505191556 53 16 4.3 9.6 0.00 0.00 0.00 76 1009.5
20260505191035 53 17 2.6 9.6 0.00 0.00 0.00 75 1009.5
20260505190549 53 324 4.3 8.7 0.00 0.00 0.00 74 1009.4
20260505190046 53 355 3.5 8.7 0.00 0.00 0.00 74 1009.3
20260505185541 53 348 6.1 12.2 0.00 0.00 0.00 74 1009.3
20260505185055 53 44 5.2 12.2 0.00 0.00 0.00 73 1009.2
20260505184531 53 349 5.2 8.7 0.00 0.00 0.00 74 1009.2
20260505184105 53 17 4.3 10.4 0.00 0.00 0.00 74 1009.1
20260505183544 53 341 4.3 10.4 0.00 0.00 0.00 73 1009.1
20260505183028 54 24 5.2 10.4 0.00 0.00 0.00 74 1009.1
20260505182544 54 56 5.2 8.7 0.00 0.00 0.00 73 1009.2
20260505182103 54 46 3.5 11.3 0.00 0.00 0.00 73 1009.2
20260505181529 54 21 7.0 11.3 0.00 0.00 0.00 72 1009.2
20260505181110 54 5 5.2 11.3 0.00 0.00 0.00 72 1009.1
20260505180539 54 23 3.5 11.3 0.00 0.00 0.00 72 1009.1
20260505180046 54 346 5.2 13.0 0.00 0.00 0.00 72 1009.1
20260505175538 55 20 7.0 13.0 0.00 0.00 0.00 71 1009.1
20260505175040 55 17 6.1 12.2 0.00 0.00 0.00 72 1009.1
20260505174541 55 45 5.2 12.2 0.00 0.00 0.00 71 1009.2
20260505174029 55 57 4.3 9.6 0.00 0.00 0.00 71 1009.2
20260505173546 55 21 3.5 10.4 0.00 0.00 0.00 71 1009.2
20260505173050 55 336 5.2 11.3 0.00 0.00 0.00 70 1009.1
20260505172539 55 52 5.2 11.3 0.00 0.00 0.00 70 1009.2
20260505172035 55 22 4.3 12.2 0.00 0.00 0.00 69 1009.2
20260505171604 56 37 5.2 12.2 0.00 0.00 0.00 68 1009.2
20260505171023 56 64 6.1 10.4 0.00 0.00 0.00 68 1009.2
20260505170535 56 67 5.2 10.4 0.00 0.00 0.00 69 1009.2
20260505170048 56 31 5.2 10.4 0.00 0.00 0.00 69 1009.3
20260505165602 56 343 3.5 12.2 0.00 0.00 0.00 68 1009.3
20260505165038 56 55 4.3 12.2 0.00 0.00 0.00 68 1009.3
20260505164541 57 325 2.6 10.4 0.00 0.00 0.00 67 1009.2
20260505164124 57 355 4.3 9.6 0.00 0.00 0.00 67 1009.3
20260505163552 57 59 5.2 10.4 0.00 0.00 0.00 66 1009.3
20260505163029 57 76 4.3 8.7 0.00 0.00 0.00 66 1009.4
20260505162554 57 348 4.3 10.4 0.00 0.00 0.00 66 1009.4
20260505162049 58 332 5.2 10.4 0.00 0.00 0.00 65 1009.4
20260505161536 58 13 4.3 11.3 0.00 0.00 0.00 65 1009.4
20260505161027 58 31 5.2 10.4 0.00 0.00 0.00 65 1009.4
20260505160543 59 47 5.2 10.4 0.00 0.00 0.00 65 1009.4
20260505153032 57 46 4.3 11.3 0.00 0.00 0.00 65 1009.4
20260505152544 57 5 5.2 11.3 0.00 0.00 0.00 65 1009.5
20260505152043 57 33 4.3 9.6 0.00 0.00 0.00 64 1009.5
20260505151548 58 272 5.2 9.6 0.00 0.00 0.00 66 1009.5
20260505151035 57 317 3.5 8.7 0.00 0.00 0.00 65 1009.5
20260505150547 57 244 3.5 8.7 0.00 0.00 0.00 65 1009.6
20260505150106 57 304 3.5 8.7 0.00 0.00 0.00 65 1009.6
20260505140625 59 56 5.2 11.3 0.00 0.00 0.00 62 1009.8
20260505125030 61 40 4.3 10.4 0.00 0.00 0.00 61 1010.2
20260505124541 61 9 6.1 11.3 0.00 0.00 0.00 62 1010.2
20260505124054 61 360 5.2 11.3 0.00 0.00 0.00 63 1010.2
20260505123554 61 26 2.6 13.0 0.00 0.00 0.00 62 1010.2
20260505123037 61 72 4.3 13.0 0.00 0.00 0.00 62 1010.2
20260505122547 61 15 2.6 9.6 0.00 0.00 0.00 63 1010.3
20260505122055 61 5 3.5 10.4 0.00 0.00 0.00 61 1010.3
20260505121530 61 39 5.2 10.4 0.00 0.00 0.00 62 1010.3
20260505121031 61 90 4.3 7.8 0.00 0.00 0.00 64 1010.2
20260505120558 60 44 3.5 10.4 0.00 0.00 0.00 64 1010.1
20260505120040 60 28 5.2 10.4 0.00 0.00 0.00 64 1010.2
20260505115546 60 5 5.2 9.6 0.00 0.00 0.00 63 1010.2
20260505115100 60 342 5.2 11.3 0.00 0.00 0.00 63 1010.2
20260505114544 61 16 7.8 11.3 0.00 0.00 0.00 62 1010.3
20260505114041 61 25 5.2 10.4 0.00 0.00 0.00 63 1010.3
20260505113539 61 24 4.3 10.4 0.00 0.00 0.00 63 1010.4
20260505113059 61 247 4.3 9.6 0.00 0.00 0.00 65 1010.4
20260505112607 60 14 5.2 9.6 0.00 0.00 0.00 64 1010.5
20260505112026 61 236 2.6 9.6 0.00 0.00 0.00 63 1010.4
20260505111547 62 347 2.6 9.6 0.00 0.00 0.00 66 1010.6
20260505111028 60 63 3.5 13.0 0.00 0.00 0.00 65 1010.5
20260505110545 61 27 5.2 13.0 0.00 0.00 0.00 62 1010.6
20260505102049 61 19 6.1 13.9 0.00 0.00 0.00 66 1010.7
20260505101600 61 5 4.3 13.9 0.00 0.00 0.00 65 1010.7
20260505101052 61 5 4.3 11.3 0.00 0.00 0.00 65 1010.8
20260505100543 60 34 2.6 11.3 0.00 0.00 0.00 68 1010.9
20260505100045 61 84 6.1 11.3 0.00 0.00 0.00 66 1010.9
20260505095602 60 32 4.3 7.8 0.00 0.00 0.00 67 1010.9
20260505095042 61 31 4.3 7.8 0.00 0.00 0.00 66 1011.0
20260505094532 59 58 3.5 11.3 0.00 0.00 0.00 71 1011.1
20260505094055 57 24 4.3 11.3 0.00 0.00 0.00 74 1011.0
20260505093613 56 81 3.5 6.1 0.00 0.00 0.00 77 1011.0
20260505093056 56 86 1.7 6.1 0.00 0.00 0.00 75 1011.0
20260505092604 56 17 2.6 7.0 0.00 0.00 0.00 75 1011.1
20260505092040 56 328 3.5 7.8 0.00 0.00 0.00 73 1011.1
20260505091535 56 355 3.5 8.7 0.00 0.00 0.00 78 1011.1
20260505091100 55 85 2.6 10.4 0.00 0.00 0.00 77 1011.1
20260505090601 54 16 5.2 10.4 0.00 0.00 0.00 79 1011.1
20260505090051 54 5 3.5 12.2 0.00 0.00 0.00 83 1011.1
20260505085540 52 355 4.3 12.2 0.00 0.00 0.00 82 1011.1
20260505085039 52 30 5.2 10.4 0.00 0.00 0.00 84 1011.1
20260505084538 52 59 3.5 8.7 0.00 0.00 0.00 85 1011.0
20260505084034 52 36 3.5 7.8 0.00 0.00 0.00 86 1011.0
20260505083553 52 29 2.6 6.1 0.00 0.00 0.00 87 1011.0
20260505083029 52 60 2.6 6.1 0.00 0.00 0.00 87 1011.0
20260505082544 52 50 1.7 6.1 0.00 0.00 0.00 88 1011.0
20260505082055 52 24 1.7 5.2 0.00 0.00 0.00 88 1011.0
20260505081533 52 41 0.9 3.5 0.00 0.00 0.00 88 1011.1
20260505081036 51 95 1.7 5.2 0.00 0.00 0.00 88 1011.1
20260505080549 51 35 1.7 7.0 0.00 0.00 0.00 88 1011.0
20260505080049 51 28 2.6 7.0 0.00 0.00 0.00 88 1010.9
20260505075551 51 31 2.6 6.1 0.00 0.00 0.00 89 1010.9
20260505075100 51 38 2.6 6.1 0.00 0.00 0.00 88 1010.9
20260505074541 51 286 3.5 6.1 0.00 0.00 0.00 89 1011.0
20260505074045 51 12 0.9 4.3 0.00 0.00 0.00 89 1011.1
20260505073541 51 355 2.6 6.1 0.00 0.00 0.00 89 1011.1
20260505073042 51 66 1.7 6.1 0.00 0.00 0.00 89 1011.2
20260505072557 51 84 1.7 4.3 0.00 0.00 0.00 89 1011.1
20260505072041 51 355 1.7 5.2 0.00 0.00 0.00 89 1011.1
20260505071547 51 26 0.9 4.3 0.00 0.00 0.00 89 1011.1
20260505071051 51 46 1.7 4.3 0.00 0.00 0.00 89 1011.2
20260505070537 51 71 1.7 5.2 0.00 0.00 0.00 89 1011.2
20260505070100 51 27 2.6 5.2 0.00 0.00 0.00 89 1011.3
20260505065600 51 355 2.6 5.2 0.00 0.00 0.00 88 1011.3
20260505065050 51 49 1.7 6.1 0.00 0.00 0.00 88 1011.4
20260505064546 51 32 2.6 5.2 0.00 0.00 0.00 88 1011.4
20260505064045 51 30 2.6 7.0 0.00 0.00 0.00 88 1011.5
20260505063542 51 5 3.5 7.8 0.00 0.00 0.00 88 1011.4
20260505063105 51 61 4.3 7.8 0.00 0.00 0.00 88 1011.4
20260505062554 51 9 3.5 7.8 0.00 0.00 0.00 88 1011.5
20260505062052 51 96 2.6 6.1 0.00 0.00 0.00 88 1011.6
20260505061543 51 355 3.5 8.7 0.00 0.00 0.00 87 1011.5
20260505061031 50 355 3.5 9.6 0.00 0.00 0.00 88 1011.4
20260505060536 50 342 3.5 9.6 0.00 0.00 0.00 88 1011.5
20260505060040 50 41 2.6 7.0 0.00 0.00 0.00 88 1011.5
20260505055542 50 5 2.6 6.1 0.00 0.00 0.00 88 1011.6